{"data":{"norad_id":64772,"intl_designator":"2025-147T","name":"STARLINK-34652","alt_names":[],"object_type":"PAYLOAD","status":"ACTIVE","operator":null,"country":"US","launch_date":"2025-07-08","launch_site_code":"AFETR","launch_vehicle":null,"mission":null,"orbit_class":"UNKNOWN","rcs_meters":null,"size_class":null,"mass_kg":null,"dimensions":null,"purposes":["comms"],"wikipedia_slug":null,"has_3d_model":false,"image_url":null,"decayed_at":null,"tle_current":{"epoch":"2026-09-20T14:28:36.136992Z","epoch_age_seconds":118704,"freshness":"FRESH","line1":"1 64772U 25147T   26263.60319603  .00024663  00000+0  73859-3 0  9997","line2":"2 64772  53.1619  53.1570 0001507  87.7765 272.3410 15.34402784 68659","mean_motion":15.34402784,"eccentricity":0.0001507,"inclination_deg":53.1619,"raan_deg":53.157,"arg_perigee_deg":87.7765,"mean_anomaly_deg":272.341,"bstar":0.00073859,"rev_number":6865,"period_min":93.847587805211,"perigee_km":461.6640522077,"apogee_km":463.72587896213,"semimajor_km":6840.8319655849,"source":"CELESTRAK","updated_at":"2026-09-21T09:00:35.439620Z"}}}